Tracking 21611 objects as of 22-Oct-2020
HD Live streaming from Space Station
objects crossing your sky now

RADUGA 4

Track RADUGA 4 now!
RADUGA 4 is classified as:


NORAD ID: 10987
Int'l Code: 1978-073A
Perigee: 35,727.5 km
Apogee: 35,815.9 km
Inclination: 9.8 °
Period: 1,435.0 minutes
Semi major axis: 42142 km
RCS: 1 m2 (large)
Launch date: July 18, 1978
Source: Commonwealth of Independent States (former USSR) (CIS)
Launch site: TYURATAM MISSILE AND SPACE COMPLEX (TTMTR)
aabbcc
Your satellite tracking list
Your tracking list is empty




NASA's NSSDC Master Catalog

Two Line Element Set (TLE):
1 10987U 78073A   20295.11681981 -.00000077 +00000-0 +00000-0 0  9998
2 10987 009.8482 304.1505 0010482 341.6627 215.8658 01.00350415098898
Source of the keplerian elements: AFSPC